Weather History for KSJX - October, 2013

Change the Weather History Date:

Tuesday, October 8, 2013

  Actual Average Record
Temperature  
Mean Temperature 52 °F -  
Max Temperature 66 °F 57 °F 80 °F (2007)
Min Temperature 37 °F 42 °F 30 °F (2001)
Degree Days  
Heating Degree Days 14    
Growing Degree Days 2 (Base 50)    
Moisture  
Dew Point 46 °F    
Average Humidity 74    
Maximum Humidity 97    
Minimum Humidity 49    
Precipitation  
Precipitation 0.00 in - - ()
Sea Level Pressure  
Sea Level Pressure 30.13 in    
Wind  
Wind Speed 3 mph (SSE)    
Max Wind Speed 13 mph    
Max Gust Speed 18 mph    
Visibility 10 miles    
Events      
Averages and records for this station are not official NWS values.
T = Trace of Precipitation, MM = Missing Value Source: NWS Daily Summary

Daily Weather History Graph

Daily Weather History Graph

Search for Another Location

Airport or City:

Trip Planner

Search our weather history database for the weather conditions in past years. The results will help you decide how hot, cold, wet, or windy it might be!

Date:

Astronomy

Oct. 08, 2013 Rise Set
Actual Time 7:49 AM EDT 7:08 PM EDT
Civil Twilight 7:20 AM EDT 7:38 PM EDT
Nautical Twilight 6:45 AM EDT 8:12 PM EDT
Astronomical Twilight 6:11 AM EDT 8:47 PM EDT
Moon 11:54 AM EDT (10/8) 9:32 PM EDT (10/8)
Length of Visible Light 12h 18m
Length of Day
11h 18m
Waxing Crescent, 16% of the Moon is Illuminated
Oct 8
Waxing Crescent
Oct 11
First Quarter
Oct 18
Full
Oct 26
Last Quarter
Nov 3
New

Hourly Weather History & Observations

Time (EDT) Temp. Windchill Dew Point Humidity Pressure Visibility Wind Dir Wind Speed Gust Speed Precip Events Conditions
12:15 AM 50.9 °F - 39.4 °F 65% 30.05 in 10.0 mi West 4.6 mph - N/A   Clear
12:36 AM 48.4 °F - 39.6 °F 72% 30.06 in 10.0 mi Calm Calm - N/A   Clear
12:55 AM 44.6 °F - 40.6 °F 86% 30.06 in 10.0 mi Calm Calm - N/A   Clear
1:15 AM 41.5 °F - 39.2 °F 91% 30.07 in 10.0 mi Calm Calm - N/A   Clear
1:36 AM 40.5 °F - 38.5 °F 93% 30.07 in 10.0 mi Calm Calm - N/A   Clear
1:55 AM 40.5 °F - 39.0 °F 95% 30.07 in 10.0 mi Calm Calm - N/A   Clear
2:16 AM 39.7 °F - 38.3 °F 95% 30.08 in 10.0 mi Calm Calm - N/A   Clear
2:35 AM 39.6 °F - 38.3 °F 95% 30.08 in 10.0 mi Calm Calm - N/A   Clear
2:55 AM 38.3 °F - 37.2 °F 96% 30.08 in 10.0 mi Calm Calm - N/A   Clear
3:16 AM 37.9 °F - 36.9 °F 96% 30.08 in 10.0 mi Calm Calm - N/A   Clear
3:35 AM 38.1 °F - 37.0 °F 96% 30.09 in 10.0 mi Calm Calm - N/A   Clear
3:55 AM 37.6 °F - 36.7 °F 97% 30.09 in 10.0 mi Calm Calm - N/A   Clear
4:16 AM 37.2 °F - 36.1 °F 96% 30.10 in 7.0 mi Calm Calm - N/A   Clear
4:35 AM 38.8 °F - 37.9 °F 97% 30.11 in 10.0 mi Calm Calm - N/A   Clear
4:55 AM 38.5 °F - 37.4 °F 96% 30.11 in 7.0 mi Calm Calm - N/A   Clear
5:15 AM 38.8 °F - 37.6 °F 95% 30.12 in 10.0 mi Calm Calm - N/A   Clear
5:35 AM 38.3 °F - 36.9 °F 95% 30.12 in 10.0 mi Calm Calm - N/A   Clear
5:56 AM 38.1 °F - 37.2 °F 97% 30.12 in 10.0 mi Calm Calm - N/A   Clear
6:15 AM 38.3 °F - 37.0 °F 95% 30.13 in 10.0 mi Calm Calm - N/A   Clear
6:35 AM 38.8 °F - 37.8 °F 96% 30.13 in 10.0 mi Calm Calm - N/A   Clear
6:56 AM 44.1 °F 42.5 °F 41.5 °F 91% 30.14 in 10.0 mi South 3.5 mph - N/A   Clear
7:16 AM 45.5 °F 44.2 °F 42.6 °F 90% 30.15 in 10.0 mi South 3.5 mph - N/A   Clear
7:36 AM 47.7 °F - 44.2 °F 88% 30.15 in 10.0 mi South 3.5 mph - N/A   Clear
7:55 AM 46.8 °F - 44.1 °F 90% 30.15 in 10.0 mi Calm Calm - N/A   Clear
8:16 AM 46.6 °F - 44.2 °F 92% 30.16 in 10.0 mi SSE 3.5 mph - N/A   Clear
8:35 AM 49.6 °F - 46.4 °F 89% 30.16 in 10.0 mi SSE 4.6 mph - N/A   Clear
8:55 AM 52.0 °F - 47.3 °F 84% 30.16 in 10.0 mi SSE 5.8 mph - N/A   Clear
9:16 AM 54.5 °F - 48.0 °F 79% 30.17 in 10.0 mi South 4.6 mph - N/A   Clear
9:35 AM 56.3 °F - 48.6 °F 75% 30.17 in 10.0 mi South 6.9 mph - N/A   Clear
9:55 AM 57.2 °F - 47.5 °F 70% 30.18 in 10.0 mi SSE 8.1 mph - N/A   Clear
10:15 AM 58.6 °F - 46.8 °F 65% 30.17 in 10.0 mi South 5.8 mph - N/A   Clear
10:36 AM 59.4 °F - 46.4 °F 62% 30.17 in 10.0 mi SSE 8.1 mph - N/A   Clear
10:55 AM 60.6 °F - 46.2 °F 59% 30.18 in 10.0 mi SSE 8.1 mph - N/A   Clear
11:15 AM 60.8 °F - 44.4 °F 55% 30.18 in 10.0 mi South 8.1 mph - N/A   Clear
11:36 AM 61.2 °F - 44.6 °F 54% 30.18 in 10.0 mi South 10.4 mph 17.3 mph N/A   Clear
11:55 AM 62.1 °F - 47.1 °F 58% 30.18 in 10.0 mi South 11.5 mph - N/A   Clear
12:15 PM 62.8 °F - 48.6 °F 60% 30.18 in 10.0 mi SSE 8.1 mph - N/A   Clear
12:36 PM 63.5 °F - 48.6 °F 58% 30.18 in 10.0 mi SSE 10.4 mph 17.3 mph N/A   Clear
12:55 PM 63.9 °F - 48.2 °F 57% 30.18 in 10.0 mi South 9.2 mph 17.3 mph N/A   Clear
1:15 PM 64.0 °F - 49.3 °F 59% 30.18 in 10.0 mi South 10.4 mph 16.1 mph N/A   Clear
1:35 PM 64.8 °F - 50.0 °F 59% 30.17 in 10.0 mi South 9.2 mph - N/A   Clear
1:55 PM 64.9 °F - 50.9 °F 60% 30.17 in 10.0 mi South 11.5 mph 16.1 mph N/A   Clear
2:16 PM 65.8 °F - 51.8 °F 60% 30.16 in 10.0 mi South 6.9 mph - N/A   Clear
2:35 PM 65.5 °F - 51.6 °F 61% 30.16 in 10.0 mi South 10.4 mph - N/A   Clear
2:56 PM 65.3 °F - 50.2 °F 58% 30.15 in 10.0 mi South 12.7 mph 17.3 mph N/A   Clear
3:15 PM 65.7 °F - 50.5 °F 58% 30.15 in 10.0 mi South 5.8 mph 17.3 mph N/A   Clear
3:35 PM 66.7 °F - 50.2 °F 55% 30.15 in 10.0 mi South 10.4 mph 16.1 mph N/A   Clear
3:56 PM 66.0 °F - 49.3 °F 55% 30.15 in 10.0 mi SSE 6.9 mph - N/A   Clear
4:15 PM 66.4 °F - 48.4 °F 52% 30.15 in 10.0 mi SSE 6.9 mph - N/A   Clear
4:35 PM 66.2 °F - 48.4 °F 53% 30.14 in 10.0 mi South 8.1 mph - N/A   Clear
4:56 PM 66.2 °F - 47.1 °F 50% 30.14 in 10.0 mi SSE 6.9 mph - N/A   Clear
5:15 PM 66.2 °F - 46.4 °F 49% 30.14 in 10.0 mi South 5.8 mph - N/A   Clear
5:35 PM 65.8 °F - 46.6 °F 50% 30.14 in 10.0 mi SSE 5.8 mph - N/A   Clear
5:55 PM 65.5 °F - 46.8 °F 51% 30.14 in 10.0 mi SSE 5.8 mph - N/A   Clear
6:15 PM 64.8 °F - 47.3 °F 53% 30.13 in 10.0 mi South 3.5 mph - N/A   Clear
6:36 PM 63.1 °F - 48.6 °F 59% 30.13 in 10.0 mi Calm Calm - N/A   Clear
6:55 PM 60.8 °F - 49.1 °F 65% 30.13 in 10.0 mi South 3.5 mph - N/A   Clear
7:15 PM 58.3 °F - 49.5 °F 72% 30.13 in 10.0 mi SE 3.5 mph - N/A   Clear
7:35 PM 57.6 °F - 49.3 °F 74% 30.13 in 10.0 mi Calm Calm - N/A   Clear
7:55 PM 55.6 °F - 49.8 °F 81% 30.13 in 10.0 mi SSE 3.5 mph - N/A   Clear
8:16 PM 57.0 °F - 49.8 °F 77% 30.13 in 10.0 mi SSE 3.5 mph - N/A   Clear
8:35 PM 56.8 °F - 50.0 °F 78% 30.13 in 10.0 mi SE 3.5 mph - N/A   Clear
8:55 PM 57.2 °F - 50.5 °F 78% 30.13 in 10.0 mi Calm Calm - N/A   Clear
9:16 PM 57.4 °F - 50.9 °F 79% 30.13 in 10.0 mi SSE 4.6 mph - N/A   Clear
9:35 PM 58.3 °F - 51.4 °F 78% 30.13 in 10.0 mi SSE 5.8 mph - N/A   Clear
9:55 PM 59.7 °F - 51.6 °F 75% 30.13 in 10.0 mi SSE 5.8 mph - N/A   Clear
10:15 PM 60.3 °F - 51.8 °F 74% 30.13 in 10.0 mi SSE 5.8 mph - N/A   Clear
10:35 PM 60.3 °F - 51.3 °F 72% 30.13 in 10.0 mi SSE 8.1 mph - N/A   Clear
10:56 PM 60.6 °F - 51.8 °F 73% 30.13 in 10.0 mi SSE 5.8 mph - N/A   Clear
11:15 PM 60.4 °F - 51.8 °F 73% 30.13 in 10.0 mi South 6.9 mph - N/A   Clear
11:35 PM 60.4 °F - 51.8 °F 73% 30.13 in 10.0 mi SSE 6.9 mph 18.4 mph N/A   Clear
11:55 PM 59.7 °F - 51.8 °F 75% 30.13 in 10.0 mi SSE 4.6 mph - N/A   Clear